Regional Weather Roundup
Issued by NWS State College, PA

Home | Current Version | Previous Version | Graphics & Text | Print | Product List | Glossary Off
Versions: 1 2 3 4 5 6 7 8 9 10 11 12 13 14 15 16 17 18 19 20 21 22 23 24 25 26 27 28 29 30 31 32 33 34 35 36 37 38 39 40 41 42 43 44 45 46 47 48 49 50

777
ASUS41 KCTP 271603
RWRCTP

REGIONAL WEATHER ROUNDUP
NATIONAL WEATHER SERVICE STATE COLLEGE PA
1200 PM EDT SAT MAY 27 2017

Note: "fair" indicates few or no clouds below 12,000 feet with no
significant weather and/or obstructions to visibility.

* = STATION THAT DOES NOT REPORT PRECIPITATION /E.G. RAIN...SNOW...ETC/
    THUNDER OR FOG.

PAZ002>004-007>009-013>016-020>023-029>032-271700-
WESTERN PENNSYLVANIA

CITY           SKY/WX    TMP DP  RH WIND       PRES   REMARKS
ERIE           SUNNY     65  54  67 N8        29.92R
MEADVILLE      MOSUNNY   67  55  65 NE6       29.91F
FRANKLIN*      CLOUDY    64  52  63 CALM      29.92F
NEW CASTLE     PTSUNNY   67  58  72 SE5       29.92S
BEAVER COUNTY  NOT AVBL
BUTLER*        CLOUDY    63  57  82 NE7       29.91F
PITTSBURGH INT CLOUDY    62  59  90 E6        29.90S
PITTSBURGH     NOT AVBL
INDIANA*       CLOUDY    61  57  88 CALM      29.95S
LATROBE        CLOUDY    63  63 100 CALM      29.92S
WASHINGTON CO* CLOUDY    63  61  94 N3        29.92S
$$

PAZ004>006-010>012-017>019-024>028-033>037-041-042-045-046-049>053-271700-
CENTRAL PENNSYLVANIA

CITY           SKY/WX    TMP DP  RH WIND       PRES   REMARKS
BRADFORD       PTSUNNY   61  51  70 CALM      29.93S
DUBOIS         CLOUDY    64  54  69 VRB3      29.92F
CLEARFIELD     CLOUDY    63  54  72 VRB5      29.93F
JOHNSTOWN      LGT RAIN  59  57  93 CALM      29.93S
ALTOONA        CLOUDY    62  55  77 N5        29.94S
STATE COLLEGE  PTSUNNY   63  54  72 CALM      29.93S
WILLIAMSPORT   CLOUDY    66  53  63 S3        29.90R
SELINSGROVE    CLOUDY    65  53  65 SW5       29.93R
FT INDIANTOWN  CLOUDY    67  56  67 SW8       29.91R
CAPITAL CITY   CLOUDY    67  53  61 W5        29.92R
HARRISBURG     CLOUDY    66  55  67 W5        29.91S
YORK           CLOUDY    67  55  65 CALM      29.92S
$$

PAZ038>040-043-044-047-048-054-055-060>062-067>071-271700-
EASTERN PENNSYLVANIA

CITY           SKY/WX    TMP DP  RH WIND       PRES   REMARKS
SCRANTON       CLOUDY    65  55  70 W8        29.91S
MOUNT POCONO   MOSUNNY   63  51  65 NW8       29.91S
ALLENTOWN      PTSUNNY   70  54  56 VRB7      29.89S
QUAKERTOWN*    MOSUNNY   70  54  56 N7        29.91R
READING        CLOUDY    69  56  62 W8        29.90S
LANCASTER      CLOUDY    68  56  65 W6        29.92R
COATESVILLE    CLOUDY    66  55  68 NW5       29.93S
POTTSTOWN      MOSUNNY   68  54  60 VRB5      29.92R
BLUE BELL      PTSUNNY   68  55  64 SW3       29.91S
DOYLESTOWN     MOSUNNY   71  56  58 VRB6      29.89R
WILLOW GROVE   NOT AVBL
NORTH PHILA    MOSUNNY   71  56  58 VRB5      29.91S
PHILADELPHIA   PTSUNNY   72  54  53 SW8       29.90S
$$




USA.gov is the U.S. government's official web portal to all federal, state and local government web resources and services.